Home > Weather > Leicester > Past weeks

Flag for United Kingdom Weather for the Past 2 Weeks in Leicester, England, United Kingdom

Now
57 °F

Sunny.


Feels Like: 55 °F
Forecast: 47 / 67 °F
Wind: 12 mph from Southeast

Location: East Midlands

Current Time: May 5, 2016 at 9:52:12 PM

Latest Report: May 5, 2016 at 9:20 PM


Visibility: 10 mi

Pressure: 30.04 "Hg

Humidity: 44%

Dew Point: 36 °F

Location of LeicesterLocation

Historic Weather in Leicester — Graph

°F

Leicester Temperature Yesterday

Maximum temperature yesterday: 63 °F (at 2:50 PM)
Minimum temperature yesterday: 39 °F (at 6:20 AM)
Average temperature yesterday: 52 °F

High & Low Weather Summary for the Past Weeks

 TemperatureHumidityPressure
High68 °F (May 5, 3:50 PM)100% (Apr 21, 4:20 AM)30.39 "Hg (Apr 21, 4:20 AM)
Low30 °F (Apr 27, 3:50 AM)35% (May 5, 3:50 PM)29.65 "Hg (Apr 29, 6:20 AM)
Average45 °F73%30.07 "Hg
* Reported Apr 20 8:20 PM — May 5 8:20 PM, Leicester, Weather by CustomWeather, © 2016

Note: Actual official high and low records may vary slightly from our data, if they occured in-between our weather recording intervals... More about our weather records

Advertising

Leicester Weather History for the Previous 24 Hours

Scroll right to see more
 ConditionsComfort  
Time TempWeatherWind HumidityBarometerVisibility
8:20 PM
Thu, May 5
61 °FSunny.13 mph48%30.01 "Hg10 mi
7:50 PM64 °FSunny.9 mph43%30.01 "Hg10 mi
7:20 PM64 °FSunny.7 mph40%30.01 "Hg10 mi
6:50 PM66 °FSunny.10 mph35%30.01 "Hg10 mi
6:20 PM66 °FSunny.12 mph40%30.04 "Hg10 mi
5:50 PM66 °FSunny.12 mph37%30.04 "Hg10 mi
5:20 PM66 °FSunny.12 mph37%30.04 "Hg10 mi
4:50 PM66 °FSunny.12 mph37%30.04 "Hg10 mi
4:20 PM68 °FPassing clouds.12 mph38%30.04 "HgN/A
3:50 PM68 °FPassing clouds.13 mph35%30.07 "HgN/A
3:20 PM66 °FPassing clouds.10 mph40%30.07 "HgN/A
2:50 PM66 °FPassing clouds.12 mph40%30.07 "HgN/A
2:20 PM66 °FPassing clouds.10 mph40%30.07 "HgN/A
1:50 PM66 °FPassing clouds.12 mph40%30.09 "HgN/A
1:20 PM64 °FPassing clouds.12 mph43%30.09 "HgN/A
12:50 PM64 °FPassing clouds.14 mph46%30.09 "HgN/A
12:20 PM64 °FPassing clouds.13 mph46%30.12 "HgN/A
11:50 AM63 °FPassing clouds.13 mph42%30.12 "HgN/A
11:20 AM63 °FPassing clouds.9 mph42%30.12 "HgN/A
10:50 AM61 °FPassing clouds.9 mph45%30.12 "HgN/A
10:20 AM59 °FSunny.5 mph45%30.12 "Hg10 mi
9:50 AM57 °FPassing clouds.6 mph51%30.12 "HgN/A
9:20 AM55 °FPassing clouds.6 mph47%30.15 "HgN/A
8:50 AM54 °FSunny.7 mph51%30.15 "Hg10 mi
8:20 AM54 °FPassing clouds.6 mph51%30.15 "HgN/A
7:50 AM50 °FPassing clouds.6 mph58%30.15 "HgN/A
7:20 AM48 °FSunny.6 mph62%30.15 "Hg10 mi
6:50 AM45 °FSunny.6 mph71%30.15 "Hg10 mi
6:20 AM45 °FClear.7 mph66%30.15 "Hg10 mi
5:50 AM43 °FClear.7 mph71%30.15 "Hg10 mi
5:20 AM43 °FClear.8 mph71%30.15 "Hg10 mi
4:50 AM43 °FClear.8 mph71%30.15 "Hg10 mi
4:20 AM45 °FClear.7 mph66%30.15 "Hg10 mi
3:50 AM46 °FPassing clouds.6 mph66%30.15 "HgN/A
3:20 AM46 °FClear.7 mph66%30.15 "Hg10 mi
2:50 AM48 °FPassing clouds.8 mph62%30.15 "HgN/A
2:20 AM48 °FClear.9 mph62%30.18 "Hg10 mi
1:50 AM48 °FClear.8 mph62%30.18 "Hg10 mi
1:20 AM50 °FClear.8 mph62%30.18 "Hg10 mi
12:50 AM50 °FClear.9 mph62%30.18 "Hg10 mi
12:20 AM50 °FClear.10 mph62%30.18 "Hg10 mi
11:50 PM
Wed, May 4
52 °FClear.10 mph62%30.18 "Hg10 mi
11:20 PM52 °FClear.9 mph62%30.18 "Hg10 mi
10:50 PM52 °FClear.8 mph62%30.18 "Hg10 mi
10:20 PM54 °FClear.10 mph58%30.18 "Hg10 mi
9:50 PM54 °FClear.8 mph58%30.18 "Hg10 mi
9:20 PM55 °FSunny.7 mph55%30.18 "Hg10 mi
Weather by CustomWeather, © 2016

See weather overviewHow to use our weather pages